Probability
0 0 0 0 0 0 0 0 0 1 1 1 0 0 1 2 3 3 2 2 4 4 4 3 3 3 3 3 4 6 6 6 6 6 4 3 3 2 1 2 3 5 8 10
0 0 0 0 0 0 0 0 0 0 0 0 0 0 1 2 3 3 3 4 5 5 4 3 2 2 2 3 4 5 6 6 6 6 5 5 4 4 3 3 4 6 8 10
0 0 0 0 0 0 0 0 0 0 0 0 0 1 1 2 4 5 6 7 7 5 3 2 1 0 1 3 4 5 6 6 6 6 6 7 7 6 6 5 5 7 8 8
0 0 0 0 0 0 0 0 0 0 0 1 1 1 1 2 5 7 7 7 7 5 4 3 1 1 2 4 5 5 5 6 7 8 8 8 7 7 7 6 7 8 8 8
0 0 0 0 0 0 0 0 0 0 1 3 4 4 2 2 5 7 7 6 6 6 6 6 4 3 4 6 6 5 6 8 9 9 9 8 7 7 7 6 7 8 9 9
0 0 0 0 0 0 0 0 0 0 2 3 5 5 2 1 4 6 7 6 7 8 9 8 7 6 7 8 8 7 8 9 9 10 10 9 9 8 7 6 7 9 10 11
0 0 0 0 0 0 0 0 0 0 1 1 3 2 1 1 3 5 6 7 8 9 9 8 7 7 8 9 9 9 9 8 8 9 10 10 10 9 8 7 9 11 12 12
0 0 0 0 0 0 0 0 0 0 0 0 0 0 0 1 3 4 5 7 9 10 9 8 7 7 8 9 9 9 7 7 7 9 10 10 10 9 9 9 12 13 13 13
0 0 0 0 0 0 0 0 0 0 0 0 0 0 0 1 2 3 4 6 8 10 9 7 6 6 7 8 8 7 5 5 6 9 10 10 11 10 10 11 13 14 13 12
0 0 0 0 0 0 0 0 0 0 0 0 0 1 2 2 1 1 2 4 6 7 7 7 7 7 7 7 6 5 4 4 6 8 10 10 11 11 11 11 12 12 12 11
0 0 0 0 0 0 0 0 0 0 0 0 1 2 3 2 1 0 1 3 4 5 6 7 8 8 7 6 6 5 4 5 6 7 8 8 8 8 9 8 8 9 10 11
0 0 0 0 0 0 0 0 0 0 0 0 1 2 3 2 1 1 2 3 3 4 6 7 8 8 6 6 5 5 5 6 6 6 5 5 5 5 5 5 4 5 6 8
0 0 0 0 0 0 0 0 0 1 1 0 1 2 2 2 1 1 2 3 3 5 5 5 5 5 4 3 4 4 5 6 6 4 3 3 4 5 5 4 3 2 2 3
0 0 0 0 0 0 0 0 0 1 1 1 0 1 1 2 3 4 4 4 4 4 4 3 2 1 1 1 2 2 3 4 5 4 4 3 4 6 6 6 5 3 1 1
0 0 0 0 0 0 0 0 0 1 1 1 1 1 1 3 5 7 7 6 5 4 3 3 2 0 0 0 1 1 2 2 4 5 5 4 5 6 6 6 6 5 3 1
0 0 0 0 0 0 0 0 0 0 0 1 1 1 2 4 6 8 8 7 6 5 4 3 2 1 1 1 1 2 2 2 3 5 6 6 5 5 6 5 5 5 3 2
0 0 0 0 0 0 0 0 0 0 0 0 1 1 2 4 6 7 6 5 4 4 3 2 2 3 3 3 4 5 5 4 4 5 6 5 4 4 4 4 4 4 3 2
0 0 0 0 0 0 0 0 0 0 0 0 0 1 2 4 4 4 3 3 3 3 3 1 1 3 5 6 8 8 7 6 6 6 5 4 3 3 3 3 3 3 2 1
0 0 0 0 0 0 0 0 0 0 0 0 0 1 2 3 2 1 2 3 3 3 2 1 0 1 4 7 8 8 7 7 6 6 4 3 3 3 2 2 2 2 1 0
0 0 0 0 0 0 0 0 0 0 0 0 0 0 1 2 2 2 3 4 3 2 1 0 0 0 1 4 6 6 6 6 6 5 3 2 2 1 1 1 1 1 0 0
0 0 0 0 0 0 0 0 0 0 0 0 0 0 1 2 2 2 3 2 1 1 0 0 0 0 0 1 3 6 6 6 6 4 2 1 1 0 0 0 0 0 0 0
0 0 0 0 0 0 0 0 0 0 0 0 0 0 0 1 1 1 1 1 0 0 0 0 0 0 0 0 2 4 5 5 4 2 0 0 0 0 0 0 0 0 0 0
0 0 0 0 0 0 0 0 0 0 0 1 1 0 0 0 0 0 0 0 0 0 0 0 0 0 0 0 1 2 2 2 1 0 0 0 0 0 0 0 0 0 0 0
0 0 0 0 0 0 0 0 0 0 1 1 1 0 0 0 0 0 0 0 0 0 0 0 0 0 0 0 0 0 0 0 0 0 0 0 0 0 0 0 0 0 0 0
0 0 0 0 0 0 0 0 0 1 2 1 1 0 0 0 0 0 0 0 0 0 0 0 0 0 0 0 0 0 0 0 0 0 0 0 0 0 0 0 0 0 0 0
0 0 0 0 0 0 0 0 0 1 2 1 0 0 0 0 0 0 0 0 0 0 0 0 0 0 0 0 0 0 0 0 0 0 0 0 0 0 0 0 0 0 0 0
0 0 0 0 0 0 0 0 0 1 1 0 0 0 0 0 0 0 0 0 0 0 0 0 0 0 0 0 0 0 0 0 0 0 0 0 0 0 0 0 0 0 0 0
Wind_Speed
2 2 2 2 1 2 4 6 6 6 5 7 4 3 3 3 2 2 1 2 2 2 1 1 1 2 2 2 2 2 2 2 2 2 2 2 2 2 2 3 3 3 2 2
1 1 0 1 2 2 3 3 4 2 5 5 2 1 1 2 3 2 2 2 2 2 2 2 2 2 1 2 2 2 2 2 2 2 1 1 2 1 1 2 2 2 2 3
2 3 2 3 4 3 2 2 4 5 6 2 1 1 2 3 4 4 3 2 2 2 2 2 3 3 2 1 1 2 1 1 1 1 2 2 2 1 2 2 1 2 3 3
1 2 3 7 2 3 2 2 3 4 3 3 2 1 1 2 3 3 2 2 2 2 2 2 2 2 2 1 1 1 1 1 1 1 2 2 2 2 2 2 2 2 3 3
3 2 4 5 2 3 3 3 2 2 1 1 1 3 3 2 1 2 2 2 2 2 2 1 1 1 2 1 1 0 1 2 2 2 1 1 2 2 2 1 2 2 2 2
4 3 5 6 4 1 3 3 3 2 2 1 2 1 4 2 1 1 0 0 1 1 1 1 1 1 2 1 1 2 3 3 2 2 2 2 2 2 1 1 2 2 2 2
3 3 6 5 4 1 2 6 3 3 3 3 3 4 3 1 1 1 1 1 1 1 1 1 1 2 2 2 3 3 2 1 1 1 2 2 1 1 1 1 1 1 2 3
4 3 7 3 1 3 6 2 1 2 3 3 2 1 0 0 1 1 1 1 1 1 1 1 0 2 1 2 2 1 1 0 1 1 1 1 1 0 0 0 1 1 2 3
6 6 5 2 3 3 2 2 1 2 2 3 2 1 1 0 1 1 1 1 0 1 0 1 1 1 1 2 1 0 0 0 1 1 1 1 1 0 0 1 1 1 2 2
2 4 4 3 2 1 1 2 1 1 2 3 2 1 1 1 1 1 1 1 1 0 1 1 1 0 1 1 0 0 1 1 0 0 1 1 1 0 1 1 2 2 2 2
2 4 3 3 2 1 1 1 1 1 1 2 3 2 1 1 2 2 2 1 1 1 1 1 1 1 1 0 1 0 1 1 0 1 1 1 1 1 2 3 3 3 3 3
6 6 5 5 4 1 0 0 0 1 1 0 2 2 2 2 2 1 1 1 1 1 1 1 1 1 1 1 1 1 1 1 1 1 1 1 1 2 3 3 4 4 5 4
5 3 4 3 2 1 1 1 1 1 1 1 0 1 1 1 1 1 1 1 1 2 2 1 1 2 2 1 1 1 2 2 1 1 2 2 2 1 2 3 4 4 4 4
4 2 1 2 2 2 2 1 1 1 1 1 1 1 1 0 0 0 1 1 1 1 1 1 2 3 3 1 1 2 2 2 2 2 2 3 3 2 2 2 3 4 3 4
4 4 4 3 1 1 1 1 2 0 1 1 1 1 1 1 0 1 1 0 0 0 1 1 2 4 3 2 2 2 2 2 2 2 2 2 2 2 2 2 3 3 3 3
2 1 2 2 2 2 2 2 2 2 2 1 0 0 1 1 1 1 1 1 1 2 2 2 2 3 3 2 2 2 2 4 3 2 2 2 2 2 2 2 3 3 3 3
2 2 2 3 3 3 3 3 4 3 2 2 2 1 1 0 0 1 2 2 1 2 2 2 3 3 3 2 2 2 2 2 3 2 2 2 2 3 3 2 3 4 4 3
5 5 5 5 4 3 3 2 2 2 2 2 1 1 1 1 2 3 3 2 2 2 3 3 3 2 2 2 2 1 1 2 2 2 2 2 2 2 2 2 3 4 3 3
3 3 3 3 4 3 3 3 2 2 2 1 1 2 2 3 3 3 2 1 1 3 4 4 4 3 3 3 2 1 1 2 2 2 2 2 2 2 2 3 3 3 3 2
1 1 2 1 2 3 3 3 2 2 1 1 1 1 2 2 2 2 1 2 3 3 3 3 3 3 3 3 3 1 1 2 2 2 2 2 2 2 3 3 3 3 3 2
0 0 0 1 1 2 2 3 2 2 2 2 2 3 3 2 2 1 1 2 4 3 3 3 2 2 2 2 2 1 1 2 2 2 2 2 2 3 3 3 3 3 2 2
1 1 1 1 1 1 1 1 2 2 1 2 2 2 2 2 2 2 3 3 3 3 2 2 2 3 3 3 1 1 2 2 2 2 2 2 3 3 3 3 2 2 2 2
1 1 1 2 2 1 0 0 1 1 2 3 3 3 3 3 2 2 3 3 2 3 2 2 3 4 4 2 1 1 2 2 2 2 2 3 3 3 3 3 2 2 2 3
1 1 1 1 1 1 1 2 2 2 2 2 2 3 2 2 2 2 3 3 3 3 2 3 4 3 2 1 1 2 2 2 2 2 3 3 3 3 3 3 3 3 3 4
1 1 1 1 1 2 2 2 1 1 0 1 2 2 2 2 2 2 2 2 3 2 2 2 3 3 2 1 1 2 2 2 2 2 2 3 3 3 3 3 3 3 3 3
1 1 2 2 3 2 2 1 1 1 1 1 1 1 1 1 2 2 1 2 3 3 2 2 2 2 1 1 2 2 2 2 2 2 3 3 3 3 2 2 3 3 3 3
1 1 1 1 1 2 2 2 2 2 2 2 2 2 1 1 1 1 2 1 2 2 2 1 1 1 2 2 2 2 2 2 2 3 3 2 2 2 2 3 3 3 2 2
Wind_Direction
228 223 164 200 239 186 172 180 184 220 221 251 253 225 220 198 174 152 148 152 169 173 181 179 178 175 177 191 177 168 165 191 225 237 241 251 257 263 253 238 241 243 244 252
335 349 146 246 282 226 210 192 198 203 253 254 244 185 184 194 183 184 198 193 185 178 185 195 204 195 184 194 187 164 168 209 231 238 239 253 264 270 270 257 252 254 257 254
255 303 37 294 257 213 213 223 182 206 232 238 252 221 216 214 196 197 203 202 203 213 209 203 203 184 190 219 179 149 181 226 231 229 247 258 267 276 280 278 270 267 264 260
142 70 222 243 252 183 185 243 223 223 230 206 214 232 259 225 199 200 199 193 207 221 204 203 182 167 157 116 124 134 191 247 244 235 246 254 255 265 277 285 273 262 267 267
121 170 271 290 265 189 178 268 244 208 225 171 99 42 346 305 200 209 209 202 202 203 200 188 183 199 140 121 114 131 248 247 240 222 227 253 260 266 277 282 285 280 275 269
127 156 232 248 286 255 112 286 265 182 186 173 104 76 269 287 340 303 317 118 130 155 148 154 205 161 125 191 204 247 252 249 235 199 196 238 257 265 279 271 274 289 297 285
152 202 256 261 295 67 161 251 256 191 191 180 191 212 233 312 322 314 356 16 80 86 79 231 183 142 182 224 240 249 257 261 241 211 212 225 247 266 282 301 308 309 299 296
146 181 253 291 80 171 223 254 198 195 190 176 184 161 149 287 297 335 354 351 64 85 346 314 161 154 191 251 263 257 236 236 269 269 260 246 196 269 309 308 319 312 310 309
186 211 246 276 237 252 197 182 214 186 184 151 136 152 167 175 265 296 292 288 286 133 334 334 350 144 188 272 282 283 98 236 269 316 308 274 214 220 344 322 286 287 291 301
255 274 288 298 298 313 194 178 194 185 170 149 155 183 193 230 268 288 299 297 313 52 33 335 340 61 201 252 276 129 233 245 244 266 319 340 327 256 221 250 261 273 277 285
253 276 313 314 305 294 12 74 89 67 164 175 155 170 188 238 275 282 298 309 300 234 221 270 321 342 292 259 145 153 241 232 261 302 295 318 310 283 267 259 246 240 249 248
219 222 199 244 271 273 153 198 160 72 23 96 163 187 188 211 250 255 276 299 298 275 237 259 302 312 293 267 189 187 230 225 220 231 262 270 282 312 310 282 282 259 241 237
224 217 202 232 255 242 203 232 233 194 186 194 222 184 190 223 248 254 315 317 271 252 236 244 270 281 279 273 222 212 238 243 232 226 235 246 252 257 303 325 321 298 279 268
226 183 218 231 228 231 205 208 100 35 30 130 138 104 118 142 341 348 306 271 260 254 255 264 278 283 284 267 220 235 240 240 237 233 238 247 251 253 255 272 300 309 306 289
243 210 210 223 222 205 181 136 104 58 17 22 82 95 103 137 224 271 282 292 36 336 297 283 283 285 288 270 242 241 241 243 242 243 249 258 260 257 264 270 275 287 303 308
258 242 190 193 218 218 192 180 181 216 211 204 201 244 240 211 239 286 297 259 199 258 274 276 269 273 273 264 259 256 249 259 263 251 255 265 262 254 259 268 276 280 283 285
188 222 214 213 223 227 222 212 202 209 209 212 233 252 269 91 1 312 303 298 263 259 264 261 271 275 268 257 253 255 264 270 278 279 266 263 261 254 254 255 269 277 279 277
215 219 215 208 214 221 229 217 201 206 217 226 230 217 241 230 245 266 276 300 329 320 305 288 288 297 298 290 278 267 263 267 272 269 270 271 269 260 258 264 270 274 286 298
223 219 216 213 209 199 207 213 214 225 233 204 193 221 242 248 245 251 256 264 285 295 298 304 311 320 311 303 309 278 274 278 284 283 278 276 280 281 279 275 274 274 280 291
255 229 207 217 210 191 202 210 203 207 221 200 199 224 258 263 256 246 237 250 254 254 272 290 301 303 296 294 303 277 269 273 279 287 295 292 291 293 287 282 279 277 277 277
251 271 247 222 224 209 198 186 184 206 220 201 205 223 238 257 257 233 232 276 286 284 289 292 289 287 287 288 281 269 269 273 275 278 285 289 293 290 288 285 280 279 281 281
208 200 247 230 194 220 227 193 189 204 224 238 244 237 227 254 266 268 253 246 268 286 290 289 290 291 294 290 265 265 274 277 279 283 282 284 281 281 285 287 287 290 288 281
235 220 220 217 204 210 278 265 215 207 226 233 232 227 229 238 232 228 269 274 269 281 289 287 297 304 309 308 290 282 285 288 287 285 283 279 275 276 280 282 279 279 279 278
240 233 220 201 155 142 235 268 266 248 235 234 231 230 229 247 271 257 251 276 287 285 283 281 287 301 317 318 303 294 290 287 285 284 285 282 277 275 275 278 278 275 271 270
231 221 190 163 175 215 233 254 291 287 258 270 270 263 249 225 232 263 272 273 278 281 289 291 293 303 323 333 317 304 296 288 283 282 285 289 289 286 284 284 278 277 276 273
238 233 228 215 211 213 214 199 206 237 219 251 285 284 279 269 252 259 272 278 277 280 289 297 304 311 324 319 305 300 295 297 296 290 284 285 287 291 297 300 296 291 290 290
262 253 261 272 258 223 209 200 202 226 222 215 247 273 274 273 272 275 278 280 282 287 291 297 306 311 315 318 310 297 287 282 280 281 285 288 293 297 298 295 295 296 297 299